Tracking 25612 objects as of 20-May-2022
HD Live streaming from Space Station
objects crossing your sky now

SL-12 R/B(2)

Track SL-12 R/B(2) now!


NORAD ID: 26101
Int'l Code: 2000-013D
Perigee: 35,605.3 km
Apogee: 35,710.7 km
Inclination: 14.0 °
Period: 1,429.2 minutes
Semi major axis: 42028 km
RCS: 1.9953 m2 (large)
Launch date: March 12, 2000
Source: Commonwealth of Independent States (former USSR) (CIS)
Launch site: TYURATAM MISSILE AND SPACE COMPLEX (TTMTR)

Note: This is a ROCKET BODY
aabbcc
Your satellite tracking list
Your tracking list is empty




NASA's NSSDC Master Catalog

Two Line Element Set (TLE):
1 26101U 00013D   22139.00406767 -.00000281  00000-0  00000+0 0  9992
2 26101  13.9773  12.1858 0012543  46.6256 127.7364  1.00757936 81648
Source of the keplerian elements: AFSPC